Miscellaneous Local Product
Issued by NWS Hastings, NE

Home | Current Version | Previous Version | Text Only | Print | Product List | Glossary On
Versions: 1 2 3 4 5 6 7 8 9 10 11 12 13 14 15 16 17 18 19 20 21 22 23 24 25 26 27 28 29 30 31 32 33 34 35 36 37 38 39 40 41 42 43 44 45 46 47 48 49 50
825
AXUS43 KGID 300902
MISGRI

GID CWA HOURLY WEATHER ROUNDUP
NATIONAL WEATHER SERVICE HASTINGS NE
400 AM CDT SAT APR 30 2016

NOTE: "FAIR" INDICATES FEW OR NO CLOUDS BELOW 12,000 FEET WITH NO
SIGNIFICANT WEATHER AND/OR OBSTRUCTIONS TO VISIBILITY.

...SOUTH CENTRAL NEBRASKA...

CITY           SKY/WX    TMP DP  RH WIND       PRES   REMARKS
GRAND ISLAND   RAIN      42  41  96 NE12      29.78S FOG
HASTINGS       LGT RAIN  42  40  92 NE13      29.75F FOG
KEARNEY        CLOUDY    41  37  87 NE13      29.78F
ORD            HVY RAIN  40  39  97 E9        29.82R FOG     WCI  34
YORK           HVY RAIN  43  41  93 NE12      29.76F
AURORA         RAIN      42  42  99 NE14      29.77F
LEXINGTON      LGT RAIN  39  37  90 NE12G17   29.80F WCI  32
HOLDREGE       LGT RAIN  41  39  95 NE9       29.77F
HEBRON         LGT RAIN  45  44  97 NE8       29.73F

...NEBRASKA PANHANDLE...

CITY           SKY/WX    TMP DP  RH WIND       PRES   REMARKS
CHADRON        LGT RAIN  37  35  92 NE17      29.96S WCI  27
ALLIANCE       LGT SNOW  32  32 100 N10       29.89R VSB 3/4 WCI  24
SCOTTSBLUFF    LGT SNOW  33  31  92 NW6       29.92F FOG     WCI  28
SIDNEY         LGT SNOW  32  31  96 N14       29.87S FOG     WCI  22

...WESTERN AND NORTH CENTRAL NEBRASKA...

CITY           SKY/WX    TMP DP  RH WIND       PRES   REMARKS
VALENTINE      LGT RAIN  40  37  89 NE15      29.90F WCI  32
AINSWORTH      LGT RAIN  40  39  97 NE15      29.88F WCI  32
ONEILL         LGT RAIN  42  39  91 NE18G29   29.86F
BROKEN BOW     RAIN      37  36  96 NE9       29.82F FOG     WCI  30
IMPERIAL       LGT SNOW  33  32  96 N13       29.83F FOG     WCI  24
NORTH PLATTE   LGT SNOW  33  32  96 N9        29.83F FOG     WCI  25
MCCOOK         LGT RAIN  37  35  92 N12       29.80S FOG     WCI  29

...EASTERN NEBRASKA...

CITY           SKY/WX    TMP DP  RH WIND       PRES   REMARKS
NORFOLK        CLOUDY    42  38  85 NE16      29.80F
SO SIOUX CITY  LGT RAIN  46  40  79 E14       29.87F
TEKAMAH        LGT RAIN  45  41  86 E22       29.82F
COLUMBUS       CLOUDY    43  36  75 NE15      29.79S
ALBION         RAIN      41  39  93 NE15G22   29.79F
OMAHA EPPLEY   LGT RAIN  46  44  93 E17G26    29.77F FOG
OFFUTT AFB     CLOUDY    46  45  98 NE17G28   29.75F
MILLARD        LGT RAIN  46  44  92 E9G21     29.76F
LINCOLN        LGT RAIN  46  44  93 E15       29.75F
NEBRASKA CITY  LGT RAIN  46  46 100 E18G26    29.73F
BEATRICE       LGT RAIN  46  45  95 E13G21    29.70F
FALLS CITY     HVY RAIN  50  48  93 E16G28    29.67F FOG

...NORTHERN KANSAS...

CITY           SKY/WX    TMP DP  RH WIND       PRES   REMARKS
GOODLAND       CLOUDY    32  31  96 N14       29.79F WCI  22
HILL CITY      LGT RAIN  42  41  96 N12       29.75F FOG
NORTON         CLOUDY    39  37  93 N9G16     29.75S FOG     WCI  33
PHILLIPSBURG   CLOUDY    45  45 100 N12       29.73F
SMITH CENTER   CLOUDY    43  43 100 N10       29.72F
BELOIT         CLOUDY    45  43  93 N12       29.69S
HAYS           CLOUDY    45  36  70 NW8       29.72F
RUSSELL        CLOUDY    45  45 100 NW12      29.69F FOG
CONCORDIA      LGT RAIN  47  45  93 NE9       29.68F FOG
SALINA         CLOUDY    51  49  92 N9        29.67S
TOPEKA         LGT RAIN  55  53  93 E16       29.63F FOG



USA.gov is the U.S. government's official web portal to all federal, state and local government web resources and services.